Вернуться в каталог

FENGYUN 1C DEB

LostSSO
NORAD 37708·DEBRIS·🇨🇳 China

Запущен May 10, 1999 с Taiyuan Satellite Launch Center

Loading…

Ближайшие Пролёты (ближайшие 24 часа)

TLE

УстаревшееSource: Space-Track

Эпоха: Aug 14, 2024, 02:14 UTC

1 37708U 99025ELZ 24227.09353258  .00044407  00000-0  68960-2 0  9992
2 37708  98.4441 335.5341 0275045 210.1265 148.3865 14.50617708851379

Отслеживайте FENGYUN 1C DEB в реальном времени с AllMySat

Download on the App Store